Regional Weather Roundup
Issued by NWS State College, PA

Home | Current Version | Previous Version | Text Only | Print | Product List | Glossary On
Versions: 1 2 3 4 5 6 7 8 9 10 11 12 13 14 15 16 17 18 19 20 21 22 23 24 25 26 27 28 29 30 31 32 33 34 35 36 37 38 39 40 41 42 43 44 45 46 47 48 49 50
000
ASUS41 KCTP 201610
RWRCTP

REGIONAL WEATHER ROUNDUP
NATIONAL WEATHER SERVICE STATE COLLEGE PA
1200 PM EDT MON OCT 20 2014

Note: "fair" indicates few or no clouds below 12,000 feet with no
significant weather and/or obstructions to visibility.

* = STATION THAT DOES NOT REPORT PRECIPITATION /E.G. RAIN...SNOW...ETC/
    THUNDER OR FOG.

PAZ002>004-007>009-013>016-020>023-029>032-201700-
WESTERN PENNSYLVANIA

CITY           SKY/WX    TMP DP  RH WIND       PRES   REMARKS
ERIE           CLOUDY    55  40  56 SW15      29.89F
MEADVILLE      PTSUNNY   50  40  68 S8G20     29.90F
FRANKLIN*      PTSUNNY   52  39  62 S16G23    29.94F
NEW CASTLE       N/A     52  41  66 S10       29.95F
BEAVER COUNTY  CLOUDY    52  41  66 S8G17     29.95F
BUTLER*        CLOUDY    52  37  58 S8        29.98F
PITTSBURGH INT CLOUDY    52  40  63 S9        29.97F
PITTSBURGH     CLOUDY    51  37  58 S9        29.97F
INDIANA*       MOSUNNY   52  39  62 W12G17    30.02F
LATROBE        CLOUDY    52  41  66 SW12G23   30.00F
WASHINGTON CO* CLOUDY    54  39  58 SW9       30.00F
$$

PAZ004>006-010>012-017>019-024>028-033>037-041-042-045-046-049>053-201700-
CENTRAL PENNSYLVANIA

CITY           SKY/WX    TMP DP  RH WIND       PRES   REMARKS
BRADFORD       CLOUDY    47  37  68 S10G18    29.93F
DUBOIS         CLOUDY    49  38  65 SW13G20   29.96F
CLEARFIELD     CLOUDY    50  39  66 SW6       29.98F
JOHNSTOWN      CLOUDY    49  36  61 SW9       29.98F
ALTOONA        PTSUNNY   53  39  59 S7        30.01F
STATE COLLEGE  NOT AVBL
WILLIAMSPORT   CLOUDY    50  35  56 W7        30.01F
SELINSGROVE    SUNNY     55  37  50 S9        30.03F
FT INDIANTOWN  PTSUNNY   50  41  71 VRB1      30.06F
CAPITAL CITY   PTSUNNY   56  37  49 SW8       30.05F
HARRISBURG     PTSUNNY   59  38  45 S9        30.05F
YORK           PTSUNNY   57  34  41 S15G21    30.05F
$$

PAZ038>040-043-044-047-048-054-055-060>062-067>071-201700-
EASTERN PENNSYLVANIA

CITY           SKY/WX    TMP DP  RH WIND       PRES   REMARKS
SCRANTON       PTSUNNY   47  33  58 W3        30.03F
MOUNT POCONO   NOT AVBL
ALLENTOWN      PTSUNNY   51  33  50 SW9       30.09F
QUAKERTOWN*    CLOUDY    50  36  57 SW8       30.10F
READING        PTSUNNY   55  39  54 NW3       30.07F
LANCASTER      PTSUNNY   55  37  50 SW10      30.07F
COATESVILLE    PTSUNNY   54  37  54 S5        30.09F
POTTSTOWN      PTSUNNY   54  37  52 S9        30.10F
BLUE BELL      PTSUNNY   59  39  47 S7        30.09F
DOYLESTOWN     PTSUNNY   52  35  52 VRB5      30.09F
WILLOW GROVE   NOT AVBL
NORTH PHILA    CLOUDY    58  34  40 SW13      30.11F
PHILADELPHIA   PTSUNNY   57  39  51 S12       30.11F
$$


USA.gov is the U.S. government's official web portal to all federal, state and local government web resources and services.